Main page
METAR-TAF:

METAR-TAF

Airports :

Comanche County–City Airport

Comanche, Texas, United States

latitude: 31-55N, longitude: 098-36-01W, elevation: 1387 ft

Current weather observation

The report was made 21 minutes ago, at 22:35 UTC
Wind 12 mph from the West
Temperature 68°F
Humidity 24%
Pressure 29.74 in. Hg
Visibility: 10 miles
Clear sky

METAR: KMKN 252235Z AUTO 27010KT 10SM CLR 20/M01 A2974 RMK AO2 T01951013

Time: 16:56 (22:56 UTC)


TAF: missing

Weather observations and forecasts of more than 4000 airports (METAR and TAF reports).

The available stations are represented by yellow and red dots on the map.

Hover mouse over dot to see the name of the station.

Then click to see weather observations and forecasts.

To change the map : click on the green buttons with a black cross to zoom in, on the green button with a dash to zoom out, or on the green arrows for adjacent maps.


METAR-TAF: